Location: Lake Hudson State Recreational Area
(41.8372°N, 84.2445°W)
Time: 09:16:12
(UTC-05:00)

Hubble Space Telescope - Visible Passes

Search period start: 12 December 2017 00:00
Search period end: 22 December 2017 00:00
Orbit: 538 x 541 km, 28.5° (Epoch: 11 December)

Date Brightness Start Highest point End Pass type
(mag) Time Alt. Az. Time Alt. Az. Time Alt. Az.
12 Dec 3.3 19:05:31 10° SSW 19:07:22 13° S 19:08:42 11° SSE visible
13 Dec 3.4 18:55:16 10° SSW 18:57:00 12° S 18:58:43 10° SSE visible
14 Dec 3.4 18:45:08 10° SSW 18:46:37 12° S 18:48:06 10° SSE visible
15 Dec 3.6 18:35:11 10° SSW 18:36:14 11° S 18:37:17 10° S visible
